QPF
0.00 0.00 0.00 0.00 0.00 0.00 0.00 0.00 0.00 0.00 0.00 0.00 0.00 0.00 0.00 0.00 0.01 0.07 0.02 0.00 0.00 0.00 0.00 0.00 0.00 0.00 0.00 0.00 0.00 0.01 0.02 0.02 0.03 0.03 0.03 0.02 0.02 0.01 0.00 0.00 0.00 0.00 0.01 0.01 0.01 0.01 0.01 0.01 0.00
0.00 0.00 0.00 0.00 0.00 0.00 0.00 0.00 0.00 0.01 0.01 0.00 0.00 0.00 0.00 0.00 0.00 0.00 0.00 0.00 0.00 0.00 0.00 0.00 0.00 0.00 0.00 0.00 0.00 0.01 0.02 0.02 0.02 0.02 0.02 0.01 0.01 0.01 0.00 0.00 0.00 0.00 0.00 0.00 0.00 0.00 0.00 0.00 0.00
0.00 0.00 0.00 0.00 0.00 0.00 0.00 0.00 0.00 0.00 0.00 0.00 0.00 0.00 0.00 0.00 0.00 0.00 0.00 0.00 0.00 0.00 0.00 0.00 0.00 0.00 0.00 0.00 0.00 0.01 0.03 0.02 0.02 0.02 0.01 0.01 0.00 0.00 0.00 0.00 0.00 0.00 0.00 0.00 0.00 0.00 0.00 0.00 0.00
0.00 0.00 0.00 0.00 0.00 0.00 0.01 0.01 0.00 0.00 0.00 0.00 0.00 0.00 0.00 0.00 0.00 0.00 0.00 0.00 0.00 0.00 0.00 0.00 0.00 0.00 0.00 0.00 0.00 0.01 0.02 0.02 0.01 0.01 0.01 0.00 0.00 0.00 0.00 0.00 0.00 0.00 0.00 0.00 0.00 0.00 0.00 0.00 0.00
0.00 0.00 0.00 0.00 0.00 0.00 0.00 0.00 0.00 0.00 0.00 0.00 0.00 0.00 0.00 0.00 0.00 0.00 0.00 0.00 0.00 0.00 0.00 0.00 0.00 0.00 0.01 0.00 0.01 0.02 0.02 0.02 0.01 0.01 0.01 0.00 0.00 0.00 0.00 0.00 0.00 0.00 0.00 0.00 0.00 0.00 0.01 0.01 0.02
0.00 0.00 0.00 0.00 0.00 0.00 0.00 0.00 0.00 0.01 0.00 0.00 0.00 0.01 0.00 0.00 0.00 0.00 0.00 0.00 0.00 0.00 0.00 0.00 0.00 0.01 0.01 0.01 0.01 0.01 0.01 0.02 0.02 0.02 0.01 0.01 0.00 0.00 0.00 0.00 0.00 0.00 0.00 0.00 0.00 0.02 0.02 0.03 0.03
0.00 0.00 0.00 0.00 0.00 0.00 0.00 0.00 0.00 0.00 0.00 0.00 0.00 0.00 0.00 0.00 0.00 0.00 0.00 0.00 0.00 0.00 0.00 0.00 0.00 0.00 0.00 0.01 0.01 0.01 0.01 0.01 0.02 0.02 0.02 0.01 0.01 0.01 0.00 0.00 0.00 0.00 0.00 0.00 0.00 0.01 0.02 0.01 0.01
0.00 0.00 0.00 0.00 0.00 0.00 0.00 0.00 0.00 0.00 0.01 0.00 0.00 0.00 0.00 0.00 0.00 0.00 0.00 0.00 0.00 0.00 0.00 0.00 0.00 0.00 0.00 0.00 0.00 0.00 0.01 0.01 0.01 0.01 0.01 0.01 0.00 0.00 0.00 0.01 0.00 0.00 0.00 0.00 0.00 0.00 0.00 0.00 0.00
0.00 0.00 0.00 0.00 0.00 0.00 0.00 0.00 0.00 0.00 0.00 0.00 0.00 0.00 0.00 0.00 0.00 0.00 0.00 0.00 0.00 0.00 0.00 0.00 0.00 0.00 0.00 0.00 0.00 0.00 0.00 0.00 0.00 0.00 0.00 0.01 0.03 0.03 0.03 0.01 0.00 0.00 0.00 0.00 0.00 0.00 0.00 0.00 0.00
0.00 0.00 0.00 0.00 0.00 0.00 0.00 0.00 0.00 0.00 0.00 0.00 0.00 0.00 0.00 0.00 0.00 0.00 0.00 0.00 0.00 0.00 0.00 0.00 0.00 0.00 0.00 0.00 0.00 0.00 0.00 0.00 0.01 0.03 0.01 0.05 0.08 0.06 0.03 0.01 0.00 0.00 0.00 0.00 0.00 0.00 0.00 0.00 0.00
0.00 0.00 0.00 0.00 0.00 0.00 0.00 0.00 0.00 0.00 0.00 0.01 0.01 0.01 0.01 0.00 0.00 0.00 0.00 0.00 0.00 0.00 0.00 0.00 0.00 0.00 0.00 0.00 0.00 0.00 0.00 0.00 0.02 0.04 0.03 0.06 0.02 0.01 0.01 0.00 0.00 0.00 0.00 0.00 0.00 0.00 0.00 0.00 0.00
0.00 0.00 0.00 0.00 0.00 0.00 0.00 0.00 0.00 0.00 0.00 0.01 0.02 0.02 0.02 0.01 0.00 0.00 0.00 0.00 0.00 0.00 0.00 0.00 0.00 0.00 0.00 0.00 0.00 0.00 0.00 0.00 0.01 0.01 0.01 0.02 0.02 0.01 0.02 0.01 0.00 0.00 0.00 0.00 0.00 0.00 0.00 0.00 0.00
0.00 0.00 0.00 0.00 0.00 0.00 0.00 0.00 0.00 0.00 0.00 0.01 0.01 0.01 0.01 0.00 0.00 0.00 0.00 0.00 0.00 0.00 0.00 0.00 0.00 0.00 0.00 0.00 0.00 0.00 0.00 0.00 0.00 0.00 0.00 0.01 0.01 0.01 0.00 0.00 0.00 0.00 0.00 0.00 0.00 0.00 0.00 0.00 0.00
0.00 0.00 0.00 0.00 0.00 0.00 0.00 0.00 0.00 0.00 0.00 0.00 0.00 0.00 0.00 0.01 0.01 0.04 0.02 0.00 0.00 0.00 0.00 0.00 0.00 0.00 0.00 0.00 0.00 0.00 0.00 0.00 0.00 0.00 0.00 0.00 0.01 0.02 0.01 0.01 0.01 0.00 0.00 0.00 0.00 0.00 0.00 0.00 0.00
0.00 0.00 0.00 0.00 0.00 0.00 0.00 0.00 0.00 0.00 0.00 0.00 0.00 0.00 0.00 0.02 0.03 0.03 0.02 0.00 0.00 0.00 0.00 0.00 0.00 0.00 0.00 0.00 0.00 0.00 0.00 0.00 0.01 0.01 0.00 0.00 0.00 0.01 0.00 0.01 0.01 0.00 0.00 0.00 0.00 0.00 0.00 0.00 0.00
0.00 0.00 0.00 0.00 0.00 0.00 0.00 0.00 0.00 0.00 0.00 0.00 0.00 0.00 0.00 0.00 0.01 0.01 0.01 0.01 0.01 0.00 0.00 0.00 0.00 0.00 0.00 0.00 0.00 0.00 0.01 0.01 0.01 0.01 0.00 0.00 0.00 0.00 0.00 0.00 0.01 0.00 0.00 0.00 0.00 0.00 0.00 0.00 0.00
0.00 0.00 0.00 0.00 0.00 0.00 0.00 0.00 0.00 0.00 0.00 0.00 0.00 0.00 0.00 0.00 0.00 0.00 0.00 0.01 0.01 0.00 0.00 0.00 0.00 0.00 0.00 0.00 0.00 0.01 0.01 0.01 0.01 0.01 0.01 0.00 0.00 0.00 0.00 0.01 0.01 0.00 0.00 0.00 0.00 0.01 0.00 0.00 0.00
0.00 0.00 0.00 0.00 0.00 0.00 0.00 0.00 0.00 0.00 0.00 0.00 0.00 0.00 0.00 0.00 0.00 0.01 0.01 0.03 0.00 0.00 0.01 0.00 0.00 0.00 0.00 0.01 0.01 0.02 0.01 0.01 0.01 0.01 0.01 0.00 0.00 0.00 0.00 0.00 0.00 0.00 0.00 0.00 0.00 0.00 0.00 0.00 0.00
0.00 0.00 0.00 0.00 0.00 0.00 0.00 0.00 0.00 0.00 0.00 0.00 0.00 0.00 0.00 0.00 0.00 0.02 0.05 0.09 0.04 0.01 0.01 0.01 0.01 0.01 0.01 0.02 0.01 0.01 0.01 0.01 0.01 0.00 0.00 0.00 0.00 0.00 0.00 0.00 0.00 0.00 0.00 0.00 0.00 0.00 0.00 0.00 0.00
0.00 0.00 0.00 0.00 0.00 0.00 0.00 0.00 0.00 0.00 0.00 0.00 0.00 0.00 0.00 0.00 0.01 0.03 0.07 0.11 0.08 0.03 0.01 0.01 0.02 0.02 0.02 0.02 0.02 0.01 0.01 0.00 0.00 0.00 0.00 0.00 0.00 0.00 0.00 0.00 0.00 0.00 0.00 0.00 0.00 0.00 0.00 0.00 0.00
0.00 0.00 0.00 0.00 0.00 0.00 0.00 0.00 0.00 0.00 0.00 0.00 0.00 0.00 0.00 0.00 0.00 0.01 0.03 0.06 0.08 0.04 0.02 0.02 0.04 0.04 0.04 0.02 0.01 0.01 0.01 0.01 0.01 0.01 0.01 0.01 0.00 0.00 0.00 0.00 0.00 0.00 0.00 0.00 0.00 0.00 0.00 0.00 0.00
0.00 0.00 0.00 0.00 0.00 0.00 0.00 0.00 0.00 0.00 0.00 0.00 0.00 0.00 0.00 0.00 0.00 0.00 0.01 0.03 0.05 0.05 0.04 0.04 0.06 0.06 0.04 0.03 0.02 0.03 0.03 0.03 0.03 0.02 0.02 0.01 0.00 0.00 0.00 0.00 0.00 0.00 0.00 0.00 0.00 0.00 0.00 0.00 0.00
0.00 0.00 0.00 0.00 0.00 0.00 0.00 0.00 0.00 0.00 0.00 0.00 0.00 0.00 0.00 0.00 0.00 0.01 0.01 0.02 0.04 0.04 0.06 0.07 0.08 0.08 0.07 0.06 0.06 0.05 0.06 0.06 0.05 0.04 0.02 0.01 0.00 0.00 0.00 0.00 0.00 0.00 0.00 0.00 0.00 0.00 0.00 0.00 0.00
0.00 0.00 0.00 0.00 0.00 0.00 0.00 0.00 0.00 0.00 0.00 0.00 0.00 0.00 0.00 0.00 0.00 0.01 0.03 0.04 0.05 0.06 0.08 0.11 0.14 0.16 0.12 0.10 0.10 0.09 0.08 0.07 0.05 0.03 0.01 0.00 0.00 0.00 0.00 0.00 0.00 0.00 0.00 0.00 0.00 0.00 0.00 0.00 0.00
0.00 0.00 0.00 0.00 0.00 0.00 0.00 0.00 0.00 0.00 0.00 0.00 0.00 0.00 0.00 0.00 0.01 0.02 0.04 0.06 0.07 0.06 0.10 0.14 0.14 0.13 0.11 0.10 0.09 0.07 0.06 0.04 0.02 0.01 0.01 0.00 0.00 0.00 0.00 0.00 0.00 0.00 0.00 0.00 0.00 0.00 0.00 0.00 0.00
0.00 0.00 0.00 0.00 0.00 0.00 0.00 0.00 0.00 0.00 0.00 0.00 0.00 0.00 0.00 0.00 0.01 0.03 0.04 0.04 0.03 0.03 0.07 0.09 0.08 0.07 0.06 0.06 0.05 0.04 0.03 0.02 0.02 0.01 0.00 0.00 0.00 0.00 0.00 0.00 0.00 0.00 0.00 0.00 0.00 0.00 0.00 0.00 0.00
0.00 0.00 0.00 0.00 0.00 0.00 0.00 0.00 0.00 0.00 0.00 0.00 0.00 0.00 0.00 0.00 0.01 0.02 0.02 0.02 0.01 0.01 0.02 0.04 0.04 0.05 0.05 0.04 0.04 0.03 0.02 0.01 0.01 0.00 0.00 0.00 0.00 0.00 0.00 0.00 0.00 0.00 0.00 0.00 0.00 0.00 0.00 0.00 0.00
0.00 0.00 0.00 0.00 0.00 0.00 0.00 0.00 0.00 0.00 0.00 0.00 0.00 0.00 0.00 0.00 0.01 0.01 0.02 0.02 0.01 0.01 0.02 0.03 0.04 0.04 0.04 0.04 0.03 0.03 0.02 0.01 0.00 0.00 0.00 0.00 0.00 0.00 0.00 0.00 0.00 0.00 0.00 0.00 0.00 0.00 0.00 0.00 0.00
0.00 0.00 0.00 0.00 0.00 0.00 0.00 0.00 0.00 0.00 0.00 0.00 0.00 0.00 0.00 0.01 0.01 0.01 0.01 0.01 0.00 0.01 0.03 0.04 0.04 0.04 0.04 0.04 0.03 0.02 0.01 0.00 0.00 0.00 0.00 0.00 0.00 0.00 0.00 0.00 0.00 0.00 0.00 0.00 0.00 0.00 0.00 0.01 0.01
0.00 0.00 0.00 0.00 0.00 0.00 0.00 0.00 0.00 0.00 0.00 0.00 0.00 0.00 0.01 0.02 0.02 0.02 0.01 0.00 0.01 0.02 0.03 0.05 0.05 0.04 0.04 0.03 0.02 0.01 0.01 0.00 0.00 0.00 0.00 0.00 0.00 0.00 0.00 0.00 0.00 0.00 0.00 0.00 0.00 0.01 0.01 0.02 0.03
MSLP
1009.36 1009.84 1010.26 1010.50 1010.47 1010.15 1009.60 1008.92 1008.28 1007.80 1007.57 1007.65 1007.97 1008.45 1008.97 1009.43 1009.74 1009.90 1009.95 1009.97 1010.07 1010.30 1010.70 1011.27 1011.93 1012.60 1013.17 1013.60 1013.87 1014.01 1014.08 1014.16 1014.30 1014.55 1014.90 1015.30 1015.70 1016.03 1016.26 1016.37 1016.39 1016.38 1016.37 1016.42 1016.54 1016.72 1016.91 1017.07 1017.17
1009.68 1010.21 1010.60 1010.74 1010.56 1010.07 1009.34 1008.53 1007.77 1007.22 1006.96 1007.02 1007.35 1007.84 1008.38 1008.84 1009.18 1009.37 1009.47 1009.56 1009.74 1010.08 1010.59 1011.26 1012.01 1012.74 1013.37 1013.83 1014.11 1014.26 1014.33 1014.40 1014.54 1014.77 1015.09 1015.46 1015.82 1016.10 1016.29 1016.36 1016.37 1016.35 1016.36 1016.43 1016.57 1016.75 1016.95 1017.10 1017.17
1010.02 1010.53 1010.84 1010.85 1010.52 1009.86 1009.00 1008.08 1007.26 1006.69 1006.44 1006.52 1006.86 1007.36 1007.89 1008.35 1008.67 1008.87 1008.99 1009.13 1009.38 1009.80 1010.41 1011.17 1012.00 1012.80 1013.48 1013.98 1014.31 1014.49 1014.58 1014.67 1014.81 1015.03 1015.32 1015.63 1015.92 1016.15 1016.28 1016.33 1016.32 1016.32 1016.35 1016.46 1016.64 1016.85 1017.06 1017.20 1017.24
1010.30 1010.75 1010.94 1010.80 1010.31 1009.54 1008.59 1007.63 1006.81 1006.28 1006.08 1006.20 1006.57 1007.08 1007.59 1008.02 1008.32 1008.49 1008.62 1008.78 1009.07 1009.55 1010.22 1011.04 1011.93 1012.79 1013.52 1014.08 1014.46 1014.69 1014.83 1014.95 1015.11 1015.32 1015.57 1015.83 1016.05 1016.22 1016.30 1016.32 1016.32 1016.34 1016.42 1016.57 1016.79 1017.04 1017.24 1017.37 1017.37
1010.47 1010.80 1010.85 1010.56 1009.95 1009.09 1008.11 1007.18 1006.43 1006.00 1005.89 1006.09 1006.51 1007.02 1007.51 1007.90 1008.15 1008.30 1008.41 1008.57 1008.89 1009.40 1010.10 1010.95 1011.87 1012.76 1013.53 1014.13 1014.56 1014.84 1015.04 1015.21 1015.38 1015.59 1015.82 1016.04 1016.21 1016.32 1016.37 1016.37 1016.38 1016.43 1016.55 1016.76 1017.01 1017.27 1017.47 1017.57 1017.53
1010.49 1010.68 1010.57 1010.14 1009.43 1008.53 1007.59 1006.74 1006.13 1005.83 1005.85 1006.14 1006.61 1007.13 1007.60 1007.95 1008.16 1008.27 1008.36 1008.53 1008.85 1009.37 1010.08 1010.94 1011.85 1012.73 1013.50 1014.12 1014.58 1014.91 1015.16 1015.37 1015.59 1015.81 1016.04 1016.23 1016.37 1016.45 1016.47 1016.47 1016.48 1016.56 1016.72 1016.95 1017.22 1017.48 1017.66 1017.72 1017.64
1010.35 1010.37 1010.11 1009.56 1008.79 1007.90 1007.04 1006.32 1005.86 1005.72 1005.88 1006.26 1006.78 1007.31 1007.76 1008.08 1008.26 1008.35 1008.45 1008.62 1008.95 1009.48 1010.17 1011.00 1011.87 1012.71 1013.44 1014.04 1014.50 1014.86 1015.15 1015.41 1015.66 1015.92 1016.16 1016.36 1016.49 1016.55 1016.56 1016.55 1016.58 1016.67 1016.84 1017.07 1017.34 1017.58 1017.73 1017.74 1017.61
1010.09 1009.95 1009.54 1008.90 1008.10 1007.25 1006.48 1005.91 1005.61 1005.61 1005.88 1006.34 1006.89 1007.42 1007.85 1008.15 1008.33 1008.44 1008.56 1008.77 1009.12 1009.65 1010.33 1011.11 1011.91 1012.67 1013.33 1013.88 1014.31 1014.66 1014.97 1015.27 1015.57 1015.87 1016.14 1016.36 1016.50 1016.57 1016.58 1016.57 1016.60 1016.68 1016.84 1017.06 1017.30 1017.51 1017.61 1017.59 1017.42
1009.76 1009.48 1008.95 1008.23 1007.42 1006.63 1005.96 1005.51 1005.34 1005.45 1005.80 1006.29 1006.84 1007.35 1007.77 1008.07 1008.27 1008.42 1008.61 1008.88 1009.29 1009.83 1010.49 1011.22 1011.94 1012.60 1013.16 1013.62 1014.00 1014.33 1014.65 1014.97 1015.31 1015.66 1015.97 1016.22 1016.39 1016.48 1016.50 1016.50 1016.51 1016.58 1016.71 1016.90 1017.10 1017.26 1017.33 1017.27 1017.09
1009.41 1009.01 1008.40 1007.64 1006.83 1006.08 1005.50 1005.15 1005.06 1005.22 1005.59 1006.07 1006.59 1007.07 1007.46 1007.77 1008.02 1008.25 1008.52 1008.89 1009.37 1009.95 1010.60 1011.28 1011.91 1012.47 1012.92 1013.29 1013.60 1013.89 1014.19 1014.54 1014.92 1015.30 1015.67 1015.96 1016.17 1016.28 1016.32 1016.32 1016.33 1016.37 1016.47 1016.61 1016.77 1016.89 1016.94 1016.88 1016.70
1009.10 1008.62 1007.94 1007.16 1006.37 1005.67 1005.14 1004.84 1004.79 1004.95 1005.28 1005.70 1006.15 1006.58 1006.95 1007.27 1007.57 1007.89 1008.28 1008.75 1009.32 1009.95 1010.61 1011.25 1011.81 1012.27 1012.63 1012.91 1013.15 1013.40 1013.69 1014.04 1014.45 1014.88 1015.29 1015.63 1015.88 1016.03 1016.09 1016.10 1016.09 1016.12 1016.18 1016.29 1016.41 1016.51 1016.55 1016.50 1016.36
1008.86 1008.33 1007.62 1006.84 1006.07 1005.41 1004.93 1004.65 1004.57 1004.69 1004.94 1005.26 1005.61 1005.96 1006.30 1006.63 1006.99 1007.40 1007.90 1008.48 1009.14 1009.83 1010.50 1011.12 1011.62 1012.02 1012.30 1012.52 1012.71 1012.93 1013.22 1013.58 1014.01 1014.48 1014.93 1015.31 1015.60 1015.78 1015.87 1015.89 1015.89 1015.90 1015.94 1016.03 1016.13 1016.23 1016.28 1016.26 1016.17
1008.68 1008.13 1007.42 1006.67 1005.94 1005.32 1004.86 1004.58 1004.47 1004.50 1004.64 1004.84 1005.08 1005.34 1005.63 1005.95 1006.36 1006.84 1007.43 1008.11 1008.84 1009.58 1010.28 1010.89 1011.37 1011.73 1011.99 1012.18 1012.35 1012.57 1012.86 1013.24 1013.69 1014.18 1014.66 1015.07 1015.39 1015.61 1015.72 1015.77 1015.77 1015.79 1015.83 1015.91 1016.01 1016.12 1016.20 1016.22 1016.18
1008.55 1008.00 1007.33 1006.62 1005.96 1005.39 1004.96 1004.67 1004.50 1004.45 1004.47 1004.54 1004.65 1004.82 1005.04 1005.36 1005.78 1006.32 1006.96 1007.70 1008.48 1009.25 1009.97 1010.59 1011.08 1011.44 1011.71 1011.92 1012.13 1012.38 1012.69 1013.09 1013.56 1014.06 1014.55 1014.98 1015.32 1015.56 1015.70 1015.78 1015.81 1015.84 1015.90 1015.99 1016.10 1016.23 1016.33 1016.40 1016.41
1008.43 1007.90 1007.28 1006.65 1006.08 1005.58 1005.19 1004.89 1004.68 1004.53 1004.43 1004.38 1004.38 1004.45 1004.61 1004.90 1005.32 1005.87 1006.55 1007.30 1008.10 1008.89 1009.62 1010.25 1010.77 1011.18 1011.50 1011.78 1012.06 1012.36 1012.72 1013.15 1013.63 1014.13 1014.61 1015.04 1015.39 1015.65 1015.82 1015.92 1015.99 1016.05 1016.13 1016.24 1016.38 1016.52 1016.65 1016.74 1016.77
1008.28 1007.80 1007.26 1006.74 1006.26 1005.85 1005.51 1005.22 1004.96 1004.73 1004.52 1004.35 1004.24 1004.23 1004.34 1004.59 1005.00 1005.54 1006.21 1006.96 1007.75 1008.53 1009.26 1009.91 1010.48 1010.96 1011.37 1011.75 1012.12 1012.51 1012.93 1013.39 1013.88 1014.36 1014.83 1015.24 1015.58 1015.85 1016.04 1016.18 1016.28 1016.38 1016.49 1016.62 1016.77 1016.93 1017.07 1017.16 1017.21
1008.10 1007.67 1007.24 1006.84 1006.49 1006.18 1005.89 1005.60 1005.29 1004.97 1004.66 1004.39 1004.19 1004.10 1004.16 1004.39 1004.78 1005.31 1005.97 1006.69 1007.45 1008.21 1008.94 1009.61 1010.23 1010.79 1011.31 1011.80 1012.28 1012.77 1013.26 1013.75 1014.24 1014.71 1015.14 1015.53 1015.85 1016.11 1016.33 1016.49 1016.64 1016.77 1016.92 1017.07 1017.22 1017.37 1017.50 1017.59 1017.62
1007.87 1007.53 1007.23 1006.97 1006.75 1006.53 1006.28 1005.98 1005.61 1005.20 1004.77 1004.39 1004.11 1003.97 1004.00 1004.21 1004.60 1005.14 1005.79 1006.50 1007.24 1007.97 1008.69 1009.38 1010.04 1010.68 1011.30 1011.91 1012.50 1013.08 1013.63 1014.16 1014.65 1015.09 1015.49 1015.84 1016.14 1016.40 1016.63 1016.83 1017.01 1017.18 1017.35 1017.51 1017.66 1017.80 1017.91 1017.97 1017.97
1007.62 1007.39 1007.24 1007.14 1007.04 1006.91 1006.68 1006.33 1005.87 1005.33 1004.78 1004.28 1003.92 1003.73 1003.75 1003.99 1004.41 1004.99 1005.66 1006.38 1007.11 1007.84 1008.55 1009.25 1009.95 1010.65 1011.36 1012.06 1012.74 1013.39 1014.00 1014.55 1015.03 1015.45 1015.81 1016.13 1016.41 1016.67 1016.91 1017.14 1017.36 1017.56 1017.75 1017.92 1018.06 1018.18 1018.25 1018.28 1018.24
1007.35 1007.28 1007.30 1007.36 1007.39 1007.31 1007.06 1006.64 1006.04 1005.35 1004.64 1004.01 1003.56 1003.34 1003.38 1003.67 1004.17 1004.83 1005.57 1006.34 1007.10 1007.84 1008.56 1009.27 1009.98 1010.72 1011.47 1012.23 1012.97 1013.67 1014.31 1014.88 1015.35 1015.75 1016.09 1016.38 1016.65 1016.91 1017.17 1017.42 1017.67 1017.90 1018.10 1018.28 1018.41 1018.50 1018.54 1018.53 1018.48
1007.09 1007.21 1007.42 1007.65 1007.79 1007.74 1007.45 1006.90 1006.13 1005.24 1004.35 1003.58 1003.04 1002.79 1002.87 1003.26 1003.88 1004.67 1005.53 1006.40 1007.23 1008.01 1008.74 1009.45 1010.16 1010.90 1011.66 1012.43 1013.19 1013.91 1014.57 1015.13 1015.60 1015.98 1016.30 1016.59 1016.85 1017.12 1017.40 1017.68 1017.95 1018.20 1018.41 1018.58 1018.70 1018.77 1018.78 1018.75 1018.68
1006.84 1007.18 1007.60 1007.99 1008.22 1008.19 1007.82 1007.13 1006.17 1005.06 1003.97 1003.05 1002.42 1002.16 1002.30 1002.80 1003.59 1004.55 1005.58 1006.59 1007.53 1008.36 1009.12 1009.83 1010.51 1011.21 1011.94 1012.69 1013.43 1014.13 1014.77 1015.32 1015.78 1016.16 1016.48 1016.76 1017.03 1017.31 1017.60 1017.90 1018.19 1018.45 1018.67 1018.84 1018.94 1018.99 1018.99 1018.94 1018.87
1006.61 1007.17 1007.80 1008.35 1008.67 1008.63 1008.18 1007.33 1006.17 1004.86 1003.58 1002.51 1001.81 1001.55 1001.77 1002.41 1003.37 1004.53 1005.75 1006.92 1007.98 1008.90 1009.69 1010.38 1011.03 1011.67 1012.33 1013.01 1013.69 1014.35 1014.96 1015.49 1015.94 1016.31 1016.63 1016.91 1017.19 1017.48 1017.78 1018.09 1018.38 1018.65 1018.86 1019.01 1019.10 1019.13 1019.12 1019.08 1019.02
1006.39 1007.16 1007.98 1008.67 1009.05 1009.01 1008.48 1007.50 1006.18 1004.69 1003.25 1002.08 1001.32 1001.08 1001.38 1002.15 1003.30 1004.65 1006.06 1007.40 1008.59 1009.58 1010.40 1011.08 1011.67 1012.24 1012.81 1013.40 1014.00 1014.60 1015.16 1015.66 1016.09 1016.45 1016.77 1017.06 1017.34 1017.63 1017.92 1018.22 1018.50 1018.75 1018.95 1019.08 1019.15 1019.17 1019.15 1019.11 1019.07
1006.16 1007.11 1008.07 1008.86 1009.30 1009.26 1008.69 1007.62 1006.19 1004.59 1003.06 1001.82 1001.04 1000.84 1001.22 1002.12 1003.42 1004.94 1006.52 1008.00 1009.30 1010.37 1011.21 1011.87 1012.41 1012.89 1013.37 1013.86 1014.37 1014.89 1015.39 1015.85 1016.26 1016.61 1016.92 1017.20 1017.47 1017.74 1018.01 1018.28 1018.53 1018.75 1018.91 1019.02 1019.07 1019.07 1019.05 1019.01 1018.97
1005.92 1006.98 1008.03 1008.89 1009.36 1009.33 1008.75 1007.66 1006.20 1004.57 1003.03 1001.79 1001.04 1000.89 1001.35 1002.35 1003.76 1005.41 1007.10 1008.69 1010.07 1011.19 1012.05 1012.69 1013.18 1013.59 1013.97 1014.37 1014.80 1015.23 1015.67 1016.08 1016.46 1016.78 1017.07 1017.33 1017.57 1017.80 1018.04 1018.26 1018.47 1018.64 1018.76 1018.83 1018.85 1018.84 1018.80 1018.76 1018.72
1005.70 1006.77 1007.84 1008.70 1009.19 1009.18 1008.63 1007.59 1006.18 1004.62 1003.15 1001.99 1001.32 1001.24 1001.77 1002.83 1004.31 1006.02 1007.77 1009.42 1010.84 1011.98 1012.85 1013.47 1013.92 1014.27 1014.59 1014.91 1015.25 1015.62 1015.99 1016.35 1016.68 1016.97 1017.22 1017.44 1017.64 1017.83 1018.01 1018.18 1018.33 1018.44 1018.52 1018.55 1018.54 1018.50 1018.45 1018.39 1018.35
1005.51 1006.51 1007.51 1008.32 1008.79 1008.81 1008.33 1007.39 1006.13 1004.73 1003.42 1002.41 1001.86 1001.87 1002.45 1003.55 1005.04 1006.75 1008.50 1010.14 1011.56 1012.70 1013.56 1014.17 1014.60 1014.91 1015.18 1015.45 1015.73 1016.03 1016.34 1016.64 1016.92 1017.16 1017.36 1017.54 1017.69 1017.82 1017.95 1018.06 1018.16 1018.22 1018.26 1018.25 1018.22 1018.16 1018.08 1018.01 1017.94
1005.41 1006.24 1007.09 1007.79 1008.21 1008.25 1007.87 1007.10 1006.05 1004.89 1003.81 1003.01 1002.62 1002.74 1003.37 1004.47 1005.92 1007.57 1009.25 1010.83 1012.21 1013.32 1014.16 1014.77 1015.19 1015.50 1015.74 1015.97 1016.21 1016.46 1016.71 1016.95 1017.17 1017.36 1017.51 1017.64 1017.74 1017.83 1017.91 1017.98 1018.04 1018.07 1018.08 1018.05 1017.99 1017.91 1017.81 1017.70 1017.61
1005.44 1006.04 1006.68 1007.22 1007.57 1007.62 1007.34 1006.77 1005.97 1005.10 1004.31 1003.76 1003.57 1003.80 1004.48 1005.55 1006.92 1008.47 1010.04 1011.51 1012.81 1013.87 1014.69 1015.29 1015.72 1016.02 1016.26 1016.48 1016.68 1016.89 1017.09 1017.28 1017.44 1017.57 1017.67 1017.75 1017.82 1017.88 1017.94 1017.99 1018.03 1018.05 1018.05 1018.01 1017.94 1017.84 1017.71 1017.57 1017.43
Thickness
5804 5810 5816 5816 5802 5795 5803 5835 5854 5840 5832 5843 5845 5839 5824 5810 5797 5780 5811 5821 5813 5803 5794 5787 5781 5776 5772 5770 5768 5766 5764 5761 5759 5757 5756 5754 5752 5751 5750 5749 5748 5748 5747 5746 5745 5744 5744 5743 5743
5806 5814 5811 5802 5787 5783 5810 5846 5838 5827 5824 5837 5843 5839 5824 5813 5815 5811 5814 5816 5812 5802 5793 5786 5779 5774 5770 5766 5764 5762 5759 5757 5755 5753 5752 5750 5749 5747 5746 5745 5744 5743 5742 5742 5741 5740 5740 5739 5739
5804 5812 5798 5793 5786 5792 5811 5840 5836 5838 5842 5843 5835 5835 5821 5812 5815 5813 5815 5818 5812 5803 5792 5782 5777 5772 5767 5764 5761 5758 5756 5754 5752 5750 5748 5746 5745 5743 5742 5742 5741 5740 5739 5738 5737 5736 5736 5735 5735
5803 5801 5796 5792 5793 5819 5827 5831 5839 5839 5843 5844 5833 5820 5819 5826 5823 5819 5819 5819 5810 5800 5789 5780 5775 5770 5766 5762 5759 5756 5753 5750 5748 5746 5743 5742 5740 5739 5738 5738 5737 5736 5735 5734 5733 5732 5731 5731 5731
5803 5794 5784 5790 5810 5838 5843 5839 5846 5836 5833 5836 5830 5810 5807 5825 5829 5823 5820 5817 5808 5799 5787 5779 5773 5768 5764 5760 5757 5753 5750 5747 5744 5742 5739 5738 5737 5736 5735 5735 5734 5732 5731 5730 5729 5728 5727 5727 5727
5793 5794 5781 5791 5822 5847 5853 5853 5848 5836 5834 5837 5828 5808 5806 5825 5823 5821 5820 5814 5808 5797 5786 5777 5770 5766 5762 5758 5755 5751 5747 5744 5741 5738 5736 5735 5734 5733 5732 5732 5730 5729 5728 5726 5725 5724 5724 5723 5723
5786 5786 5786 5809 5828 5841 5851 5857 5846 5835 5831 5835 5837 5811 5809 5820 5823 5824 5819 5814 5807 5798 5785 5777 5770 5764 5760 5756 5752 5748 5745 5741 5739 5736 5734 5733 5732 5731 5730 5729 5727 5726 5724 5723 5722 5721 5721 5720 5720
5801 5789 5790 5810 5823 5837 5854 5855 5853 5843 5835 5847 5847 5819 5805 5817 5825 5823 5817 5810 5804 5796 5787 5779 5772 5766 5760 5754 5750 5746 5742 5739 5736 5734 5732 5731 5730 5728 5727 5725 5724 5722 5721 5720 5719 5718 5718 5718 5718
5805 5783 5786 5815 5832 5838 5855 5850 5855 5859 5846 5847 5849 5836 5828 5828 5826 5817 5809 5803 5798 5793 5787 5782 5776 5769 5763 5756 5750 5745 5741 5738 5735 5733 5731 5729 5728 5726 5724 5723 5721 5719 5718 5717 5716 5716 5716 5716 5715
5798 5783 5800 5833 5850 5846 5851 5850 5850 5848 5839 5838 5836 5835 5834 5828 5821 5812 5804 5796 5791 5787 5786 5784 5779 5772 5767 5760 5750 5746 5742 5738 5735 5733 5730 5727 5726 5724 5723 5720 5718 5716 5715 5714 5714 5714 5714 5713 5713
5802 5796 5815 5837 5851 5852 5849 5849 5851 5842 5830 5829 5817 5817 5820 5819 5818 5813 5807 5800 5793 5788 5786 5785 5780 5775 5770 5763 5755 5751 5747 5740 5737 5733 5730 5726 5725 5723 5721 5717 5714 5713 5712 5711 5711 5711 5712 5712 5712
5804 5812 5822 5834 5848 5842 5840 5848 5847 5845 5840 5843 5828 5816 5815 5811 5815 5814 5809 5803 5796 5789 5786 5784 5779 5774 5769 5766 5761 5755 5750 5744 5739 5733 5729 5726 5724 5723 5721 5717 5714 5714 5713 5713 5712 5712 5713 5712 5710
5804 5811 5824 5832 5837 5837 5839 5841 5845 5846 5852 5849 5837 5827 5822 5819 5820 5817 5813 5808 5799 5790 5786 5782 5778 5772 5767 5764 5760 5756 5750 5744 5738 5733 5729 5725 5723 5721 5720 5717 5714 5713 5712 5711 5709 5709 5709 5707 5705
5811 5816 5820 5825 5828 5833 5830 5834 5840 5846 5857 5850 5841 5833 5827 5824 5820 5810 5808 5804 5799 5791 5785 5781 5775 5769 5764 5760 5757 5754 5749 5743 5738 5733 5728 5724 5722 5718 5717 5714 5710 5708 5707 5706 5703 5704 5703 5701 5700
5814 5807 5809 5817 5822 5827 5828 5818 5831 5852 5858 5848 5845 5841 5835 5825 5820 5810 5808 5806 5801 5792 5786 5779 5773 5768 5762 5758 5755 5752 5748 5742 5737 5731 5726 5721 5719 5716 5713 5710 5707 5703 5702 5701 5699 5697 5696 5694 5692
5800 5790 5783 5804 5815 5822 5815 5801 5835 5856 5851 5841 5841 5842 5835 5827 5823 5819 5814 5806 5801 5793 5785 5778 5775 5767 5761 5758 5754 5751 5747 5741 5734 5728 5723 5718 5714 5711 5708 5705 5701 5697 5696 5694 5691 5687 5684 5681 5679
5778 5771 5774 5793 5816 5820 5814 5805 5832 5853 5845 5833 5833 5836 5835 5829 5823 5819 5814 5807 5799 5792 5784 5777 5774 5766 5760 5757 5751 5748 5743 5737 5730 5724 5718 5713 5709 5705 5702 5698 5693 5690 5687 5683 5679 5674 5670 5666 5664
5763 5772 5778 5788 5815 5821 5813 5812 5827 5841 5835 5828 5828 5831 5832 5829 5823 5815 5809 5802 5796 5790 5783 5776 5771 5765 5759 5754 5747 5741 5735 5730 5724 5718 5711 5706 5702 5697 5694 5690 5684 5680 5676 5671 5667 5663 5659 5655 5652
5775 5780 5788 5805 5826 5821 5814 5811 5819 5830 5829 5822 5822 5825 5827 5826 5826 5814 5803 5794 5785 5781 5777 5772 5765 5761 5755 5747 5739 5731 5725 5720 5714 5708 5702 5696 5692 5687 5683 5680 5674 5670 5665 5660 5657 5652 5647 5643 5641
5772 5769 5777 5796 5816 5813 5807 5805 5811 5815 5819 5821 5818 5817 5820 5821 5815 5804 5793 5785 5776 5770 5768 5765 5760 5754 5748 5741 5735 5728 5719 5712 5705 5697 5690 5685 5680 5675 5671 5666 5663 5658 5652 5649 5645 5639 5633 5629 5626
5772 5770 5773 5778 5793 5800 5792 5785 5795 5803 5811 5818 5822 5820 5818 5817 5806 5795 5787 5779 5770 5762 5760 5757 5752 5746 5740 5734 5727 5717 5709 5700 5692 5685 5679 5674 5669 5663 5658 5654 5649 5644 5639 5635 5630 5625 5620 5614 5610
5761 5776 5773 5770 5765 5764 5775 5756 5782 5795 5800 5806 5813 5817 5814 5814 5805 5790 5782 5772 5765 5757 5753 5749 5743 5736 5729 5724 5716 5707 5698 5690 5683 5676 5668 5663 5659 5654 5648 5643 5637 5631 5626 5622 5616 5609 5605 5601 5596
5766 5777 5772 5768 5760 5753 5760 5749 5765 5791 5795 5803 5813 5817 5814 5811 5803 5785 5775 5765 5757 5750 5743 5738 5731 5723 5717 5713 5705 5698 5689 5681 5673 5665 5657 5653 5648 5643 5638 5631 5625 5619 5614 5609 5603 5598 5592 5586 5581
5772 5767 5763 5760 5752 5731 5748 5745 5751 5780 5793 5804 5814 5815 5808 5805 5795 5778 5767 5756 5746 5738 5730 5723 5716 5709 5704 5699 5692 5686 5677 5669 5661 5653 5646 5642 5638 5634 5628 5621 5614 5608 5603 5596 5590 5585 5579 5574 5566
5762 5741 5723 5720 5721 5727 5757 5752 5761 5790 5803 5807 5806 5804 5803 5798 5780 5763 5751 5741 5729 5722 5715 5708 5701 5693 5689 5684 5678 5672 5665 5658 5651 5644 5638 5634 5630 5624 5616 5611 5602 5596 5590 5583 5578 5572 5566 5560 5554
5754 5742 5717 5708 5720 5742 5765 5757 5775 5797 5805 5805 5803 5799 5792 5783 5768 5752 5739 5727 5717 5708 5702 5695 5688 5680 5675 5670 5664 5659 5652 5648 5640 5633 5630 5624 5618 5611 5603 5596 5590 5583 5577 5571 5565 5559 5553 5549 5543
5747 5746 5751 5732 5727 5722 5737 5757 5779 5795 5790 5791 5791 5788 5780 5766 5751 5738 5725 5714 5704 5696 5689 5682 5675 5668 5662 5657 5651 5645 5640 5635 5628 5622 5617 5612 5603 5598 5591 5584 5577 5570 5564 5558 5551 5545 5540 5535 5530
5758 5753 5742 5728 5710 5706 5723 5739 5755 5771 5773 5777 5776 5773 5764 5748 5735 5722 5710 5700 5691 5683 5675 5668 5662 5656 5650 5645 5639 5633 5627 5621 5615 5611 5602 5596 5589 5581 5576 5570 5564 5558 5552 5546 5540 5534 5530 5525 5519
5751 5745 5739 5735 5732 5714 5708 5730 5767 5760 5765 5766 5768 5767 5754 5738 5723 5711 5699 5689 5679 5669 5661 5654 5648 5643 5637 5632 5627 5620 5614 5608 5603 5597 5590 5583 5575 5568 5563 5557 5552 5546 5541 5536 5530 5525 5519 5514 5508
5759 5750 5741 5719 5715 5719 5712 5725 5767 5761 5758 5752 5754 5758 5744 5727 5713 5700 5688 5676 5665 5656 5648 5641 5635 5630 5624 5619 5613 5606 5601 5595 5589 5582 5575 5569 5562 5556 5551 5545 5540 5534 5530 5524 5519 5513 5507 5501 5494